TimeEST,TemperatureF,Dew PointF,Humidity,Sea Level PressureIn,VisibilityMPH,Wind Direction,Wind SpeedMPH,Gust SpeedMPH,PrecipitationIn,Events,Conditions,WindDirDegrees,DateUTC
12:58 AM,36.1,27.5,71,30.12,10.0,Calm,Calm,-,N/A,,Overcast,0,2013-03-05 05:58:00
1:58 AM,34.5,28.0,77,30.10,10.0,East,3.5,-,N/A,,Mostly Cloudy,100,2013-03-05 06:58:00
2:58 AM,34.5,28.9,80,30.12,10.0,North,1.2,-,N/A,,Partly Cloudy,360,2013-03-05 07:58:00
3:58 AM,35.6,30.7,82,30.10,10.0,East,2.3,-,N/A,,Scattered Clouds,90,2013-03-05 08:58:00
4:58 AM,36.3,31.8,84,30.10,10.0,East,3.5,-,N/A,,Mostly Cloudy,90,2013-03-05 09:58:00
5:58 AM,38.1,32.2,79,30.10,10.0,ESE,4.6,-,N/A,,Mostly Cloudy,120,2013-03-05 10:58:00
6:58 AM,37.9,32.0,79,30.08,10.0,East,3.5,-,N/A,,Mostly Cloudy,100,2013-03-05 11:58:00
7:58 AM,41.9,33.8,73,30.08,10.0,NE,1.2,-,N/A,,Mostly Cloudy,50,2013-03-05 12:58:00
8:58 AM,46.0,35.4,66,30.07,10.0,SE,2.3,-,N/A,,Overcast,140,2013-03-05 13:58:00
9:58 AM,51.6,36.9,57,30.05,10.0,South,4.6,-,N/A,,Overcast,190,2013-03-05 14:58:00
10:13 AM,53.6,37.4,54,30.05,7.0,West,5.8,-,N/A,Rain,Light Rain,280,2013-03-05 15:13:00
10:38 AM,51.8,41.0,67,30.04,7.0,South,4.6,-,N/A,,Overcast,180,2013-03-05 15:38:00
10:58 AM,52.7,41.0,64,30.04,10.0,South,5.8,-,0.00,,Overcast,180,2013-03-05 15:58:00
11:58 AM,57.6,36.3,45,30.00,10.0,South,6.9,16.1,N/A,,Overcast,190,2013-03-05 16:58:00
12:03 PM,59.0,37.4,45,29.99,10.0,South,8.1,-,N/A,,Overcast,190,2013-03-05 17:03:00
12:58 PM,61.7,39.2,43,29.96,10.0,South,11.5,18.4,N/A,,Mostly Cloudy,180,2013-03-05 17:58:00
1:58 PM,68.5,43.5,40,29.90,10.0,South,11.5,23.0,N/A,,Mostly Cloudy,190,2013-03-05 18:58:00
2:58 PM,70.2,46.2,42,29.86,10.0,SSW,19.6,25.3,N/A,,Mostly Cloudy,200,2013-03-05 19:58:00
3:58 PM,67.5,48.2,50,29.84,10.0,SSW,16.1,27.6,N/A,,Mostly Cloudy,200,2013-03-05 20:58:00
4:58 PM,65.1,49.6,57,29.82,10.0,South,11.5,21.9,N/A,,Mostly Cloudy,190,2013-03-05 21:58:00
5:58 PM,63.1,50.0,62,29.80,10.0,SSW,13.8,19.6,N/A,,Overcast,200,2013-03-05 22:58:00
6:58 PM,60.6,47.7,62,29.74,10.0,SSE,12.7,-,N/A,,Mostly Cloudy,160,2013-03-05 23:58:00
7:58 PM,59.2,46.8,63,29.69,10.0,SSE,12.7,20.7,N/A,Rain,Light Rain,150,2013-03-06 00:58:00
8:09 PM,59.0,46.4,63,29.68,10.0,SSE,15.0,21.9,N/A,Rain,Light Rain,160,2013-03-06 01:09:00
8:45 PM,57.2,50.0,77,29.69,7.0,South,12.7,-,N/A,Rain,Light Rain,180,2013-03-06 01:45:00
8:58 PM,55.2,50.4,84,29.70,10.0,Variable,6.9,-,0.05,Rain,Light Rain,0,2013-03-06 01:58:00
9:05 PM,55.4,50.0,82,29.69,10.0,Variable,5.8,-,N/A,,Overcast,0,2013-03-06 02:05:00
9:58 PM,55.9,52.2,87,29.70,10.0,SW,8.1,19.6,0.00,,Mostly Cloudy,220,2013-03-06 02:58:00
10:31 PM,57.2,48.2,72,29.69,10.0,West,18.4,28.8,N/A,,Partly Cloudy,260,2013-03-06 03:31:00
10:58 PM,56.1,45.0,66,29.70,10.0,West,15.0,26.5,N/A,,Partly Cloudy,260,2013-03-06 03:58:00
11:58 PM,53.1,40.6,63,29.70,10.0,West,12.7,25.3,N/A,,Clear,270,2013-03-06 04:58:00